Sant Hilari Sacalm





Hora UTC 20:20
Temperatura 2.2 ºC
Humitat 90.0 %
Pressió 999.7 hPa
Pluja 0.2 mm
Velocitat vent 11.3 km/h
Direcció vent NNW
Radiació solar 0.0 W/m²

Dades diàries 2019-11-15



Hora UTC (hivern +1h; estiu +2h)
Temperatura (ºC) Humitat (%) Pressió (hPa) Velocitat vent (km/h) Precipitació (mm) Radiació solar (W/m²)
Hora UTC Aire Humitat Pressió Vel. Dir. Vel. Max Dir. Intent. màx 5 min. Rad. Sol.
00:05 1.2 91.0 995.2 0.0 NW 0.0 0.0 0.0
00:10 1.0 91.0 995.4 0.0 NW 0.0 0.0 0.0
00:15 0.9 92.0 995.5 0.0 NW 0.0 0.0 0.0
00:20 0.9 92.0 995.5 0.0 NW 0.0 0.0 0.0
00:25 0.8 92.0 995.5 0.0 NW 0.0 0.0 0.0
00:30 0.7 92.0 995.6 0.0 NW 0.0 0.0 0.0
00:35 0.6 92.0 995.6 0.0 NW 0.0 0.0 0.0
00:40 0.6 93.0 995.7 0.0 NW 0.0 0.0 0.0
00:45 0.6 93.0 995.4 0.0 NW 0.0 0.0 0.0
00:50 0.6 93.0 995.4 0.0 NW 0.0 0.0 0.0
00:55 0.5 93.0 995.3 0.0 NW 0.0 0.0 0.0
01:00 0.3 93.0 995.4 0.0 NW 0.0 0.0 0.0
01:05 0.2 93.0 995.4 0.0 NW 0.0 0.0 0.0
01:10 0.2 93.0 995.5 0.0 N 0.0 0.0 0.0
01:15 0.3 93.0 995.7 0.0 NNE 0.0 0.0 0.0
01:20 0.4 93.0 995.7 0.0 NNE 0.0 0.0 0.0
01:25 0.4 93.0 995.6 0.0 WSW 0.0 0.0 0.0
01:30 0.4 93.0 995.6 0.0 WSW 0.0 0.0 0.0
01:35 0.4 93.0 995.6 0.0 WSW 0.0 0.0 0.0
01:40 0.4 93.0 995.8 0.0 WSW 0.0 0.0 0.0
01:45 0.5 93.0 995.9 0.0 WSW 0.0 0.0 0.0
01:50 0.5 93.0 995.8 0.0 WSW 0.0 0.0 0.0
01:55 0.6 93.0 996.0 0.0 WSW 0.0 0.0 0.0
02:00 0.6 93.0 995.9 0.0 WSW 0.0 0.0 0.0
02:05 0.4 93.0 995.8 0.0 WSW 0.0 0.0 0.0
02:10 0.3 93.0 995.9 0.0 WSW 0.0 0.0 0.0
02:15 0.2 93.0 995.9 0.0 WSW 0.0 0.0 0.0
02:20 0.2 93.0 996.0 0.0 WSW 0.0 0.0 0.0
02:25 0.2 93.0 995.9 0.0 WSW 0.0 0.0 0.0
02:30 0.3 93.0 995.9 0.0 WSW 0.0 0.0 0.0
02:35 0.4 93.0 995.8 0.0 WSW 0.0 0.0 0.0
02:40 0.4 93.0 995.7 0.0 WSW 0.0 0.0 0.0
02:45 0.4 93.0 995.8 0.0 WSW 0.0 0.0 0.0
02:50 0.3 93.0 995.8 0.0 WSW 0.0 0.0 0.0
02:55 0.3 93.0 995.8 0.0 WSW 0.0 0.0 0.0
03:00 0.3 93.0 996.0 0.0 WSW 0.0 0.0 0.0
03:05 0.3 93.0 996.1 0.0 WSW 0.0 0.0 0.0
03:10 0.4 93.0 996.1 0.0 WSW 0.0 0.0 0.0
03:15 0.4 93.0 996.2 0.0 WSW 0.0 0.0 0.0
03:20 0.4 93.0 996.1 0.0 WSW 0.0 0.0 0.0
03:25 0.5 93.0 996.0 0.0 WSW 0.0 0.0 0.0
03:30 0.4 93.0 996.0 0.0 WSW 0.0 0.0 0.0
03:35 0.3 93.0 996.1 0.0 WSW 0.0 0.0 0.0
03:40 0.4 93.0 996.0 0.0 WSW 0.0 0.0 0.0
03:45 0.3 93.0 996.1 0.0 WSW 0.0 0.0 0.0
03:50 0.3 93.0 996.1 0.0 WSW 0.0 0.0 0.0
03:55 0.3 93.0 996.0 0.0 WSW 0.0 0.0 0.0
04:00 0.3 93.0 996.1 0.0 WSW 0.0 0.0 0.0
04:05 0.3 93.0 996.1 0.0 WSW 0.0 0.0 0.0
04:10 0.3 93.0 996.1 0.0 WSW 0.0 0.0 0.0
04:15 0.3 93.0 996.1 0.0 WSW 0.0 0.0 0.0
04:20 0.3 93.0 996.1 0.0 WSW 0.0 0.0 0.0
04:25 0.2 93.0 996.1 0.0 WSW 0.0 0.0 0.0
04:30 0.2 93.0 996.1 0.0 WSW 0.0 0.0 0.0
04:35 0.2 93.0 996.1 0.0 WSW 0.0 0.0 0.0
04:40 0.3 93.0 996.3 0.0 WSW 0.0 0.0 0.0
04:45 0.3 93.0 996.2 0.0 WSW 0.0 0.0 0.0
04:50 0.3 93.0 996.3 0.0 WSW 0.0 0.0 0.0
04:55 0.3 93.0 996.2 0.0 WSW 0.0 0.0 0.0
05:00 0.3 93.0 996.3 0.0 WSW 0.0 0.0 0.0
05:05 0.3 93.0 996.4 0.0 WSW 0.0 0.0 0.0
05:10 0.3 93.0 996.3 0.0 WSW 0.0 0.0 0.0
05:15 0.3 93.0 996.3 0.0 WSW 0.0 0.0 0.0
05:20 0.2 93.0 996.3 0.0 WSW 0.0 0.0 0.0
05:25 0.2 93.0 996.5 0.0 WSW 0.0 0.0 0.0
05:30 0.1 93.0 996.5 0.0 WSW 0.0 0.0 0.0
05:35 0.1 93.0 996.4 0.0 WSW 0.0 0.0 0.0
05:40 0.1 93.0 996.6 0.0 WSW 0.0 0.0 0.0
05:45 -0.1 93.0 996.8 0.0 WSW 0.0 0.0 0.0
05:50 -0.1 93.0 996.8 0.0 WSW 0.0 0.0 0.0
05:55 -0.1 93.0 996.7 0.0 WSW 0.0 0.0 0.0
06:00 -0.1 93.0 996.6 0.0 WSW 0.0 0.0 0.0
06:05 -0.1 93.0 996.6 0.0 WSW 0.0 0.0 0.0
06:10 -0.1 93.0 996.5 0.0 WSW 0.0 0.0 0.0
06:15 -0.1 93.0 996.7 0.0 WSW 0.0 0.0 0.0
06:20 0.0 93.0 996.8 0.0 WSW 0.0 0.0 0.0
06:25 0.0 93.0 996.8 0.0 WSW 0.0 0.0 0.0
06:30 -0.1 93.0 996.6 0.0 WSW 0.0 0.0 0.0
06:35 -0.1 93.0 996.7 0.0 WSW 0.0 0.0 0.0
06:40 -0.2 93.0 996.7 0.0 WSW 0.0 0.0 0.0
06:45 -0.2 93.0 996.8 0.0 WSW 0.0 0.0 0.0
06:50 -0.2 93.0 996.9 0.0 WSW 0.0 0.0 7.0
06:55 -0.1 93.0 996.9 0.0 WSW 0.0 0.0 9.0
07:00 -0.1 93.0 996.9 0.0 WSW 0.0 0.0 12.0
07:05 -0.1 93.0 997.0 0.0 WSW 0.0 0.0 16.0
07:10 -0.1 93.0 997.2 0.0 WSW 0.0 0.0 18.0
07:15 -0.1 93.0 997.3 0.0 WSW 0.0 0.0 19.0
07:20 0.0 93.0 997.3 0.0 WSW 0.0 0.0 25.0
07:25 0.2 94.0 997.5 0.0 WSW 0.0 0.0 28.0
07:30 0.2 94.0 997.5 0.0 WSW 0.0 0.0 30.0
07:35 0.3 93.0 997.6 0.0 WSW 0.0 0.0 30.0
07:40 0.4 93.0 997.7 0.0 WSW 0.0 0.0 28.0
07:45 0.4 93.0 997.7 0.0 WSW 0.0 0.0 26.0
07:50 0.6 94.0 997.8 0.0 WSW 0.0 0.0 28.0
07:55 0.7 93.0 997.8 0.0 WSW 0.0 0.0 30.0
08:00 0.9 94.0 997.8 0.0 WSW 0.0 0.0 30.0
08:05 1.0 93.0 997.8 0.0 WSW 0.0 0.0 37.0
08:10 1.1 93.0 997.8 0.0 WSW 0.0 0.0 39.0
08:15 1.2 93.0 997.8 0.0 WSW 0.0 0.0 44.0
08:20 1.3 93.0 997.9 0.0 WSW 0.0 0.0 49.0
08:25 1.4 93.0 997.9 0.0 WSW 0.0 0.0 54.0
08:30 1.6 93.0 997.9 0.0 WSW 0.0 0.0 58.0
08:35 1.7 93.0 997.9 0.0 WSW 0.0 0.0 62.0
08:40 1.8 93.0 998.0 0.0 WSW 0.0 0.0 53.0
08:45 1.8 93.0 998.0 0.0 WSW 0.0 0.3 53.0
08:50 1.9 93.0 998.0 0.0 WSW 0.0 0.0 40.0
08:55 2.1 93.0 998.0 0.0 WSW 0.0 0.0 63.0
09:00 2.3 93.0 998.0 0.0 WSW 0.0 0.0 70.0
09:05 2.4 93.0 998.1 0.0 WSW 0.0 0.0 56.0
09:10 2.6 93.0 998.1 0.0 WSW 0.0 0.0 49.0
09:15 2.8 93.0 998.0 0.0 WSW 0.0 0.0 79.0
09:20 2.9 93.0 998.0 0.0 WSW 0.0 0.0 86.0
09:25 3.1 93.0 998.0 0.0 WSW 0.0 0.0 137.0
09:30 3.3 93.0 997.9 0.0 WSW 0.0 0.0 132.0
09:35 3.4 93.0 998.0 0.0 WSW 0.0 0.0 91.0
09:40 3.6 93.0 998.0 0.0 WSW 0.0 0.0 79.0
09:45 3.7 93.0 997.9 0.0 WSW 0.0 0.0 114.0
09:50 3.8 94.0 997.9 0.0 WSW 0.0 0.0 148.0
09:55 4.0 94.0 998.0 0.0 WSW 0.0 0.0 125.0
10:00 4.1 93.0 998.0 0.0 WSW 0.0 0.0 123.0
10:05 4.1 94.0 997.9 0.0 WSW 0.0 0.0 172.0
10:10 4.1 93.0 997.8 0.0 WSW 0.0 0.0 149.0
10:15 4.2 93.0 997.9 0.0 WSW 0.0 0.0 188.0
10:20 4.3 94.0 997.8 0.0 SSE 0.0 0.0 134.0
10:25 4.3 93.0 997.8 9.7 SSW 9.7 0.0 146.0
10:30 4.2 92.0 997.7 0.0 SSW 9.7 0.0 172.0
10:35 4.3 92.0 997.6 0.0 SSW 8.0 0.0 299.0
10:40 4.5 92.0 997.6 0.0 SE 3.2 0.0 350.0
10:45 4.6 92.0 997.5 0.0 SSE 0.0 0.0 320.0
10:50 4.7 91.0 997.4 0.0 SSE 0.0 0.0 295.0
10:55 4.9 91.0 997.4 0.0 SE 0.0 0.0 369.0
11:00 5.2 90.0 997.3 0.0 SE 0.0 0.0 443.0
11:05 5.3 89.0 997.3 4.8 N 9.7 0.0 299.0
11:10 5.4 87.0 997.3 1.6 NE 11.3 0.0 399.0
11:15 5.2 86.0 997.2 8.0 NW 12.9 0.0 151.0
11:20 5.1 85.0 997.1 3.2 NNW 11.3 0.0 237.0
11:25 5.1 85.0 997.1 1.6 NNW 8.0 0.0 185.0
11:30 5.1 84.0 997.1 0.0 NNW 8.0 0.0 174.0
11:35 5.1 84.0 997.0 1.6 N 3.2 0.0 153.0
11:40 5.1 83.0 996.9 9.7 SSW 11.3 0.0 148.0
11:45 5.1 80.0 997.0 0.0 S 11.3 0.0 167.0
11:50 5.2 79.0 997.0 3.2 W 9.7 0.0 165.0
11:55 5.2 78.0 996.9 1.6 SW 9.7 0.0 236.0
12:00 5.3 78.0 996.9 8.0 W 9.7 0.0 371.0
12:05 5.3 76.0 996.8 0.0 WSW 9.7 0.0 244.0
12:10 5.4 77.0 996.9 1.6 WNW 8.0 0.0 251.0
12:15 5.4 78.0 996.8 1.6 SE 8.0 0.0 260.0
12:20 5.5 78.0 996.8 6.4 WNW 12.9 0.0 313.0
12:25 5.3 78.0 996.8 9.7 W 12.9 0.0 360.0
12:30 5.3 78.0 996.8 1.6 WNW 14.5 0.0 469.0
12:35 5.3 79.0 996.8 8.0 NW 9.7 0.0 504.0
12:40 5.4 80.0 996.8 9.7 NNW 9.7 0.0 373.0
12:45 5.4 79.0 996.7 0.0 W 9.7 0.0 425.0
12:50 5.5 79.0 996.6 0.0 S 9.7 0.0 482.0
12:55 5.6 76.0 996.5 0.0 S 9.7 0.0 483.0
13:00 5.8 73.0 996.5 9.7 SW 14.5 0.0 559.0
13:05 6.0 73.0 996.5 4.8 SW 14.5 0.0 577.0
13:10 6.3 72.0 996.5 4.8 SW 12.9 0.0 494.0
13:15 6.3 70.0 996.4 8.0 WNW 16.1 0.0 399.0
13:20 5.9 68.0 996.5 8.0 W 24.1 0.0 320.0
13:25 5.9 70.0 996.4 9.7 SW 24.1 0.0 376.0
13:30 5.8 71.0 996.4 8.0 WSW 19.3 0.0 415.0
13:35 5.7 71.0 996.5 9.7 SSW 19.3 0.0 471.0
13:40 5.7 71.0 996.4 0.0 W 16.1 0.0 464.0
13:45 5.7 70.0 996.3 11.3 SW 14.5 0.0 132.0
13:50 5.8 70.0 996.4 4.8 WSW 14.5 0.0 454.0
13:55 5.8 70.0 996.4 1.6 W 20.9 0.0 431.0
14:00 5.7 71.0 996.4 8.0 W 22.5 0.0 417.0
14:05 5.7 73.0 996.4 0.0 W 22.5 0.0 394.0
14:10 5.8 72.0 996.4 8.0 SSW 8.0 0.0 380.0
14:15 5.8 69.0 996.3 1.6 WSW 16.1 0.0 362.0
14:20 5.8 68.0 996.2 1.6 SW 16.1 0.0 343.0
14:25 6.0 68.0 996.2 6.4 SW 14.5 0.0 329.0
14:30 6.0 66.0 996.2 1.6 WNW 16.1 0.0 316.0
14:35 6.1 65.0 996.3 1.6 SW 16.1 0.0 301.0
14:40 6.1 66.0 996.3 6.4 SSW 12.9 0.0 287.0
14:45 6.1 67.0 996.4 1.6 SW 12.9 0.0 269.0
14:50 6.2 68.0 996.5 1.6 WNW 3.2 0.0 253.0
14:55 5.9 67.0 996.6 1.6 NW 20.9 0.0 239.0
15:00 5.8 68.0 996.6 1.6 WSW 20.9 0.0 223.0
15:05 5.6 69.0 996.6 0.0 NW 9.7 0.0 209.0
15:10 5.7 70.0 996.6 0.0 WNW 9.7 0.0 197.0
15:15 5.8 70.0 996.6 0.0 WNW 1.6 0.0 183.0
15:20 5.8 70.0 996.8 1.6 SW 1.6 0.0 171.0
15:25 5.5 71.0 997.0 0.0 WSW 9.7 0.0 47.0
15:30 5.3 73.0 996.8 1.6 WNW 17.7 0.0 42.0
15:35 5.0 74.0 996.8 0.0 SSE 17.7 0.0 39.0
15:40 4.7 75.0 996.8 1.6 WSW 11.3 0.0 39.0
15:45 4.4 77.0 996.8 0.0 WSW 11.3 0.0 40.0
15:50 4.3 77.0 996.8 0.0 WNW 6.4 0.0 40.0
15:55 4.2 78.0 996.6 0.0 WSW 6.4 0.0 39.0
16:00 4.2 78.0 996.5 1.6 NNW 8.0 0.0 37.0
16:05 4.2 77.0 996.6 9.7 WSW 17.7 0.0 35.0
16:10 4.2 77.0 996.5 9.7 WSW 32.2 0.0 35.0
16:15 4.2 77.0 996.3 6.4 WNW 32.2 0.0 30.0
16:20 4.1 78.0 996.5 8.0 WNW 38.6 0.0 19.0
16:25 4.1 78.0 996.4 19.3 WSW 38.6 0.0 11.0
16:30 4.1 78.0 996.4 1.6 SW 32.2 0.0 5.0
16:35 4.1 77.0 996.5 12.9 SW 24.1 0.0 0.0
16:40 4.0 78.0 996.6 0.0 W 19.3 0.0 0.0
16:45 3.8 79.0 996.8 11.3 W 25.7 0.0 0.0
16:50 3.7 80.0 996.8 14.5 WNW 30.6 0.0 0.0
16:55 3.7 80.0 996.9 0.0 W 30.6 0.0 0.0
17:00 3.6 80.0 997.2 9.7 NW 20.9 0.0 0.0
17:05 3.5 81.0 997.3 0.0 NW 20.9 0.0 0.0
17:10 3.4 81.0 997.6 8.0 NNE 24.1 0.0 0.0
17:15 3.3 81.0 997.7 8.0 W 19.3 0.0 0.0
17:20 3.3 82.0 997.9 0.0 E 17.7 0.0 0.0
17:25 3.2 82.0 998.0 0.0 NE 1.6 0.0 0.0
17:30 3.1 83.0 998.2 0.0 NW 1.6 0.0 0.0
17:35 3.1 83.0 998.3 0.0 NNE 1.6 0.0 0.0
17:40 2.9 84.0 998.3 0.0 NNW 1.6 0.0 0.0
17:45 2.9 85.0 998.3 0.0 NNW 16.1 0.0 0.0
17:50 2.8 85.0 998.3 3.2 NNW 16.1 0.0 0.0
17:55 2.8 86.0 998.4 6.4 W 19.3 0.0 0.0
18:00 2.8 86.0 998.4 0.0 SSW 19.3 0.0 0.0
18:05 2.8 86.0 998.3 9.7 WSW 17.7 0.0 0.0
18:10 2.7 87.0 998.3 6.4 WNW 19.3 0.0 0.0
18:15 2.7 87.0 998.3 8.0 NNW 19.3 0.0 0.0
18:20 2.7 87.0 998.5 8.0 NW 20.9 0.0 0.0
18:25 2.7 87.0 998.5 4.8 WNW 25.7 0.0 0.0
18:30 2.7 88.0 998.6 8.0 NW 25.7 0.0 0.0
18:35 2.6 88.0 998.6 22.5 WNW 25.7 0.0 0.0
18:40 2.6 88.0 998.6 16.1 NW 25.7 0.0 0.0
18:45 2.6 88.0 998.6 9.7 NW 22.5 0.0 0.0
18:50 2.6 88.0 998.8 16.1 W 25.7 0.0 0.0
18:55 2.6 89.0 998.8 16.1 WNW 25.7 0.0 0.0
19:00 2.6 89.0 998.9 12.9 W 24.1 0.0 0.0
19:05 2.5 89.0 998.9 17.7 NW 25.7 0.0 0.0
19:10 2.6 89.0 998.9 20.9 W 25.7 0.0 0.0
19:15 2.6 89.0 998.9 11.3 NNW 25.7 0.0 0.0
19:20 2.6 89.0 998.9 9.7 NNW 29.0 0.0 0.0
19:25 2.6 89.0 999.2 33.8 W 33.8 0.0 0.0
19:30 2.6 88.0 999.2 12.9 NNW 33.8 0.0 0.0
19:35 2.6 89.0 999.2 8.0 WNW 32.2 0.0 0.0
19:40 2.6 89.0 999.3 0.0 NW 25.7 0.0 0.0
19:45 2.6 89.0 999.3 6.4 WNW 22.5 0.0 0.0
19:50 2.4 89.0 999.4 12.9 NW 22.5 0.0 0.0
19:55 2.4 89.0 999.4 6.4 WNW 22.5 0.0 0.0
20:00 2.3 89.0 999.4 9.7 NW 22.5 0.0 0.0
20:05 2.3 89.0 999.5 11.3 NW 19.3 0.0 0.0
20:10 2.3 89.0 999.5 6.4 WNW 17.7 0.0 0.0
20:15 2.3 89.0 999.6 8.0 NNW 17.7 0.0 0.0
20:20 2.2 90.0 999.7 11.3 NNW 19.3 0.0 0.0
Màxima 6.3 94.0 999.7 33.8 W 38.6 0.3 577.0
Mínima -0.2 65.0 995.2
Total 0.3